| time (UTC) | temp F | wind direction | speed MPH | gust MPH | rain 1hr in | rain 24hr in | rain mn in | humidity % | barometer mb |
| 20260504014544 | 66 | 243 | 8.0 | 10.0 | 0.00 | 0.00 | 0.00 | 41 | 994.4 |
| 20260504013040 | 68 | 245 | 7.0 | 13.0 | 0.00 | 0.00 | 0.00 | 39 | 994.8 |
| 20260504011538 | 70 | 260 | 9.0 | 14.0 | 0.00 | 0.00 | 0.00 | 37 | 995.2 |
| 20260504010041 | 70 | 259 | 8.0 | 15.0 | 0.00 | 0.00 | 0.00 | 36 | 995.5 |
| 20260504004533 | 71 | 262 | 9.0 | 16.0 | 0.00 | 0.00 | 0.00 | 35 | 996.0 |
| 20260504003031 | 72 | 286 | 12.0 | 20.0 | 0.00 | 0.00 | 0.00 | 34 | 996.3 |
| 20260504001529 | 73 | 278 | 12.0 | 20.0 | 0.00 | 0.00 | 0.00 | 31 | 996.5 |
| 20260504000026 | 74 | 302 | 13.0 | 20.0 | 0.00 | 0.00 | 0.00 | 29 | 996.9 |
| 20260503234527 | 73 | 306 | 13.0 | 21.0 | 0.00 | 0.00 | 0.00 | 30 | 997.2 |
| 20260503233022 | 73 | 250 | 11.0 | 23.0 | 0.00 | 0.00 | 0.00 | 32 | 997.5 |
| 20260503231521 | 73 | 293 | 12.0 | 21.0 | 0.00 | 0.00 | 0.00 | 30 | 997.8 |
| 20260503230117 | 74 | 283 | 15.0 | 23.0 | 0.00 | 0.00 | 0.00 | 29 | 998.1 |
| 20260503224515 | 73 | 281 | 13.0 | 21.0 | 0.00 | 0.00 | 0.00 | 31 | 998.5 |
| 20260503223022 | 74 | 257 | 17.0 | 23.0 | 0.00 | 0.00 | 0.00 | 31 | 998.8 |
| 20260503221509 | 72 | 273 | 12.0 | 19.0 | 0.00 | 0.00 | 0.00 | 33 | 999.2 |
| 20260503220011 | 71 | 285 | 11.0 | 21.0 | 0.00 | 0.00 | 0.00 | 35 | 999.7 |
| 20260503214505 | 71 | 264 | 13.0 | 23.0 | 0.00 | 0.00 | 0.00 | 33 | 999.9 |
| 20260503213003 | 72 | 281 | 17.0 | 25.0 | 0.00 | 0.00 | 0.00 | 32 | 1000.2 |
| 20260503211500 | 71 | 273 | 12.0 | 21.0 | 0.00 | 0.00 | 0.00 | 34 | 1000.7 |
| 20260503210100 | 72 | 255 | 12.0 | 21.0 | 0.00 | 0.00 | 0.00 | 35 | 1001.3 |
| 20260503204608 | 72 | 257 | 11.0 | 23.0 | 0.00 | 0.00 | 0.00 | 34 | 1001.9 |
| 20260503203054 | 72 | 295 | 9.0 | 19.0 | 0.00 | 0.00 | 0.00 | 35 | 1002.2 |
| 20260503201550 | 71 | 263 | 11.0 | 18.0 | 0.00 | 0.00 | 0.00 | 35 | 1002.7 |
| 20260503200046 | 71 | 283 | 12.0 | 21.0 | 0.00 | 0.00 | 0.00 | 34 | 1003.0 |
| 20260503194543 | 70 | 297 | 13.0 | 23.0 | 0.00 | 0.00 | 0.00 | 34 | 1003.5 |
| 20260503193042 | 70 | 286 | 13.0 | 22.0 | 0.00 | 0.00 | 0.00 | 35 | 1003.7 |
| 20260503191555 | 70 | 292 | 9.0 | 20.0 | 0.00 | 0.00 | 0.00 | 37 | 1003.8 |
| 20260503190037 | 69 | 271 | 12.0 | 22.0 | 0.00 | 0.00 | 0.00 | 38 | 1004.4 |
| 20260503184535 | 69 | 287 | 7.0 | 18.0 | 0.00 | 0.00 | 0.00 | 39 | 1004.9 |
| 20260503183040 | 68 | 302 | 9.0 | 22.0 | 0.00 | 0.00 | 0.00 | 37 | 1005.4 |
| 20260503181528 | 67 | 283 | 10.0 | 18.0 | 0.00 | 0.00 | 0.00 | 38 | 1005.9 |
| 20260503180031 | 67 | 276 | 10.0 | 15.0 | 0.00 | 0.00 | 0.00 | 38 | 1006.2 |
| 20260503174523 | 66 | 295 | 9.0 | 15.0 | 0.00 | 0.00 | 0.00 | 40 | 1006.7 |
| 20260503173018 | 65 | 298 | 8.0 | 15.0 | 0.00 | 0.00 | 0.00 | 40 | 1007.0 |
| 20260503171519 | 64 | 313 | 7.0 | 15.0 | 0.00 | 0.00 | 0.00 | 40 | 1007.4 |
| 20260503090105 | 38 | 300 | 0.0 | 0.0 | 0.00 | 0.00 | 0.00 | 72 | 1010.0 |
| 20260503081556 | 40 | 347 | 0.0 | 0.0 | 0.00 | 0.00 | 0.00 | 69 | 1009.7 |
| 20260503071602 | 42 | 323 | 0.0 | 0.0 | 0.00 | 0.00 | 0.00 | 69 | 1009.6 |
| 20260503054532 | 46 | 317 | 0.0 | 0.0 | 0.00 | 0.00 | 0.00 | 74 | 1009.2 |
| 20260503053020 | 48 | 297 | 0.0 | 1.0 | 0.00 | 0.00 | 0.00 | 73 | 1009.2 |
| 20260503051516 | 49 | 321 | 0.0 | 6.0 | 0.00 | 0.00 | 0.00 | 72 | 1009.1 |
| 20260503050016 | 49 | 359 | 0.0 | 9.0 | 0.00 | 0.00 | 0.00 | 71 | 1009.1 |
| 20260503044513 | 49 | 29 | 0.0 | 2.0 | 0.00 | 0.00 | 0.00 | 71 | 1009.1 |
| 20260503043015 | 50 | 44 | 0.0 | 6.0 | 0.00 | 0.00 | 0.00 | 70 | 1008.8 |
| 20260503041519 | 51 | 352 | 0.0 | 5.0 | 0.00 | 0.00 | 0.00 | 69 | 1008.8 |
| 20260503040016 | 51 | 356 | 0.0 | 8.0 | 0.00 | 0.00 | 0.00 | 69 | 1008.8 |
| 20260503034511 | 51 | 20 | 0.0 | 0.0 | 0.00 | 0.00 | 0.00 | 71 | 1008.8 |
| 20260503033011 | 51 | 8 | 0.0 | 0.0 | 0.00 | 0.00 | 0.00 | 71 | 1008.6 |
| 20260503031510 | 51 | 316 | 0.0 | 0.0 | 0.00 | 0.00 | 0.00 | 73 | 1008.5 |
| 20260503030015 | 49 | 25 | 0.0 | 0.0 | 0.00 | 0.00 | 0.00 | 71 | 1008.0 |
| 20260503024509 | 52 | 59 | 0.0 | 0.0 | 0.00 | 0.00 | 0.00 | 69 | 1007.7 |
| 20260503023010 | 54 | 60 | 0.0 | 0.0 | 0.00 | 0.00 | 0.00 | 66 | 1007.5 |
| 20260503021510 | 55 | 78 | 0.0 | 0.0 | 0.00 | 0.00 | 0.00 | 64 | 1007.2 |
| 20260503020008 | 56 | 82 | 0.0 | 0.0 | 0.00 | 0.00 | 0.00 | 61 | 1006.9 |